Miscellaneous Local Product
Issued by NWS Hastings, NE

Home | Current Version | Previous Version | Graphics & Text | Print | Product List | Glossary On
Versions: 1 2 3 4 5 6 7 8 9 10 11 12 13 14 15 16 17 18 19 20 21 22 23 24 25 26 27 28 29 30 31 32 33 34 35 36 37 38 39 40 41 42 43 44 45 46 47 48 49 50
018
AXUS43 KGID 260202
MISGRI

GID CWA HOURLY WEATHER ROUNDUP
NATIONAL WEATHER SERVICE HASTINGS NE
900 PM CDT MON SEP 25 2017

NOTE: "FAIR" INDICATES FEW OR NO CLOUDS BELOW 12,000 FEET WITH NO
SIGNIFICANT WEATHER AND/OR OBSTRUCTIONS TO VISIBILITY.

...SOUTH CENTRAL NEBRASKA...

CITY           SKY/WX    TMP DP  RH WIND       PRES   REMARKS
GRAND ISLAND   CLOUDY    51  51 100 N14       30.04R
HASTINGS       CLOUDY    52  51  97 N13       30.03R
KEARNEY        LGT RAIN  50  49  96 N14       30.05R
ORD            CLOUDY    50  47  89 N10       30.05R
YORK           CLOUDY    54  54 100 N7        30.02R
AURORA         CLOUDY    52  52 100 N9        30.01S
LEXINGTON      CLOUDY    51  48  90 N8        30.07R
HOLDREGE       CLOUDY    50  49  95 N12       30.05R FOG
HEBRON         LGT RAIN  57  56  97 N6        30.00R

...NEBRASKA PANHANDLE...

CITY           SKY/WX    TMP DP  RH WIND       PRES   REMARKS
CHADRON        CLEAR     45  39  79 SE5       30.09R
ALLIANCE       CLEAR     41  38  89 E5        30.09R
SCOTTSBLUFF    CLEAR     47  42  83 SE6       30.10R
SIDNEY         CLOUDY    48  41  76 NE6       30.12R

...WESTERN AND NORTH CENTRAL NEBRASKA...

CITY           SKY/WX    TMP DP  RH WIND       PRES   REMARKS
VALENTINE      CLOUDY    49  47  93 N5        30.10R
AINSWORTH      LGT RAIN  48  47  99 N6        30.09R
ONEILL         RAIN      49  49 100 N12       30.07S
BROKEN BOW     HVY RAIN  50  47  89 N7        30.07R
IMPERIAL       CLOUDY    48  46  93 NE10      30.06F
NORTH PLATTE   CLOUDY    49  47  93 N7        30.09R
MCCOOK         RAIN      50  49  96 N12       30.08R FOG

...EASTERN NEBRASKA...

CITY           SKY/WX    TMP DP  RH WIND       PRES   REMARKS
NORFOLK        LGT RAIN  53  52  96 N10       30.02R
SO SIOUX CITY  CLOUDY    57  56  96 N7        30.00R
TEKAMAH        LGT RAIN  58  56  93 N8        29.98R
COLUMBUS       LGT RAIN  55  53  93 N7        30.02R
ALBION         DRIZZLE   52  51  96 N7        30.04R
OMAHA EPPLEY   LGT RAIN  61  58  90 N8        29.96R FOG
OFFUTT AFB     RAIN      62  60  94 N6        29.95S
MILLARD        LGT RAIN  62  60  94 N6        29.96S
LINCOLN        LGT RAIN  59  57  93 N10       30.00R
NEBRASKA CITY  LGT RAIN  65  65 100 CALM      29.96R
BEATRICE       LGT RAIN  62  61  98 N7        29.98R
FALLS CITY     LGT RAIN  66  65  96 NE5       29.93F

...NORTHERN KANSAS...

CITY           SKY/WX    TMP DP  RH WIND       PRES   REMARKS
GOODLAND       CLOUDY    49  47  93 N12       30.08R
HILL CITY      CLOUDY    53  53 100 N8        30.05R
NORTON         CLOUDY    50  46  87 N10       30.05R FOG
PHILLIPSBURG   DRIZZLE   54  54 100 N13       30.03R
SMITH CENTER   CLOUDY    52  52 100 N12       30.01R FOG
HAYS           CLOUDY    55  54  96 N12       30.01R
RUSSELL        CLOUDY    56  55  97 N12       29.97R FOG
CONCORDIA      CLOUDY    59  59 100 NE8       29.97S
SALINA         LGT RAIN  64  61  90 NW5       29.97R
TOPEKA         LGT RAIN  67  67 100 NE5       29.95S



USA.gov is the U.S. government's official web portal to all federal, state and local government web resources and services.